Location: Ch?enovice
(49.7164°N, 15.2160°E)
Time: 17:04:17
(UTC+00:00)

Cosmos 2322 Rocket - Pass Details

Date: 23 May 2024
Orbit: 832 x 850 km, 71.0° (Epoch: 13 June)

Event Time Altitude Azimuth Distance (km) Brightness Sun altitude
Rises 00:51:33 0° 331° (NNW) 3,401 5.8 -15.1°
Reaches altitude 10° 00:54:00 10° 332° (NNW) 2,465 5.1 -14.9°
Maximum altitude 00:59:41 83° 61° (ENE) 856 2.3 -14.5°
Drops below altitude 10° 01:05:21 10° 150° (SSE) 2,462 4.3 -14.0°
Sets 01:07:48 0° 151° (SSE) 3,395 5.1 -13.8°
